Home   Weather   Whyalla   Past weeks
Flag for Australia

Past Weather in Whyalla, South Australia, Australia — Yesterday and Last 2 Weeks

Now
52 °F

Cool.


Feels Like: 49 °F
Forecast: 61 / 52 °F
Wind: 8 mph from Southwest

Location: Whyalla Airport Aws

Current Time: May 27, 2019 at 9:06:06 am

Latest Report: May 27, 2019 at 7:30 am


Visibility: N/A

Pressure: 30.17 "Hg

Humidity: 85%

Dew Point: 47 °F

Location of WhyallaLocation

Past Weather in Whyalla — Graph

°F

Whyalla Temperature Yesterday

Maximum temperature yesterday: 63 °F (at 2:30 pm)
Minimum temperature yesterday: 44 °F (at 6:00 am)
Average temperature yesterday: 55 °F

High & Low Weather Summary for the Past Weeks

 TemperatureHumidityPressure
High84 °F (May 23, 3:00 pm)98% (May 13, 7:30 am)30.48 "Hg (May 13, 7:30 am)
Low40 °F (May 16, 5:30 am)21% (May 24, 3:00 pm)30.00 "Hg (May 24, 3:00 pm)
Average58 °F70%30.22 "Hg
* Reported May 12 7:30 am — May 27 7:30 am, Whyalla. Weather by CustomWeather, © 2019

Note: Actual official high and low records may vary slightly from our data, if they occured in-between our weather recording intervals... More about our weather records

Advertising

Whyalla Weather History for the Previous 24 Hours

Scroll right to see more
 ConditionsComfort  
Time TempWeatherWind HumidityBarometerVisibility
7:30 am
Mon, May 27
52 °FCool.8 mph85%30.17 "HgN/A
5:30 am53 °FCool.7 mph96%30.13 "HgN/A
4:30 am53 °FCool.8 mph95%30.12 "HgN/A
3:00 am53 °FOvercast.6 mph90%30.11 "HgN/A
2:30 am53 °FCool.9 mph85%30.11 "HgN/A
1:30 am52 °FCool.12 mph87%30.10 "HgN/A
12:00 am53 °FCool.8 mph86%30.11 "HgN/A
11:30 pm
Sun, May 26
52 °FCool.8 mph85%30.11 "HgN/A
10:30 pm53 °FCool.12 mph83%30.12 "HgN/A
9:00 pm54 °FPassing clouds.8 mph79%30.13 "HgN/A
8:30 pm55 °FCool.7 mph75%30.13 "HgN/A
7:30 pm57 °FCool.13 mph70%30.12 "HgN/A
6:00 pm60 °FOvercast.12 mph64%30.10 "HgN/A
5:30 pm61 °FRefreshingly cool.13 mph59%30.09 "HgN/A
4:30 pm61 °FCool.13 mph65%30.08 "HgN/A
3:00 pm62 °FOvercast.14 mph54%30.09 "HgN/A
2:30 pm63 °FMild.14 mph52%30.09 "HgN/A
1:30 pm62 °FRefreshingly cool.16 mph50%30.11 "HgN/A
12:00 pm62 °FOvercast.13 mph57%30.14 "HgN/A
11:30 am61 °FRefreshingly cool.14 mph59%30.15 "HgN/A
10:30 am59 °FCool.12 mph64%30.18 "HgN/A
9:00 am52 °FCool.8 mph89%30.17 "HgN/A
Weather by CustomWeather, © 2019

See weather overview